Regional Weather Roundup
Issued by NWS

Home | Current Version | Previous Version | Text Only | Print | Product List | Glossary Off
Versions: 1 2 3 4 5 6 7 8 9 10 11 12 13 14 15 16 17 18 19 20 21 22 23 24 25 26 27 28 29 30 31 32 33 34 35 36 37 38 39 40 41 42 43 44 45 46 47 48 49 50

000
ASUS43 KTOP 021059
RWRKS

WEATHER ROUNDUP FOR KANSAS
NATIONAL WEATHER SERVICE GOODLAND KS
500 AM CST FRI DEC 02 2016

NOTE:  "FAIR" INDICATES FEW OR NO CLOUDS BELOW 12,000 FEET WITH NO
SIGNIFICANT WEATHER AND/OR OBSTRUCTIONS TO VISIBILITY.

KSZ001>006-013>018-027>032-041>047-021200-
NORTHWEST KANSAS

CITY           SKY/WX    TMP DP  RH WIND       PRES   REMARKS
GOODLAND       CLEAR     17   9  70 W9        30.12R
HAYS           CLEAR     18  13  80 CALM      30.15R
HILL CITY      CLEAR     19  12  74 W7        30.15R
RUSSELL        CLEAR     19  14  81 SW5       30.14R
$$

KSZ061>065-074>080-084>089-021200-
SOUTHWEST KANSAS

CITY           SKY/WX    TMP DP  RH WIND       PRES   REMARKS
DODGE CITY     CLOUDY    20  12  71 NW6       30.13R
ELKHART          N/A     25   7  46 W3          N/A
GARDEN CITY    CLOUDY    18   9  68 NW8       30.11R
GREAT BEND     CLEAR     18  13  80 CALM      30.16R
LIBERAL        PTCLDY    19   7  58 CALM      30.11R
$$

KSZ066>073-081>083-090>101-021200-
SOUTHEAST KANSAS

CITY           SKY/WX    TMP DP  RH WIND       PRES   REMARKS
CHANUTE        CLOUDY    40  27  59 E6        30.16R
COFFEYVILLE    CLOUDY    36  30  79 NE6       30.15R
HUTCHINSON     PTCLDY    24  18  77 CALM      30.15R
MEDICINE LODGE   N/A     27  19  72 N5        30.13R
NEWTON         CLEAR     30  22  72 E7        30.15R
PARSONS        CLOUDY    41  29  62 VRB5      30.16R
WICHITA INTL   PTCLDY    35  26  69 N8        30.13R
WICHITA JABRA  CLEAR     30  24  78 N7        30.13R
WINFIELD       CLEAR     37  26  64 NE7       30.12R
$$

KSZ007>012-019>026-033>040-048>060-102>105-021200-
NORTHEAST KANSAS

CITY           SKY/WX    TMP DP  RH WIND       PRES   REMARKS
CONCORDIA      CLEAR     19  16  88 SE3       30.16R
EMPORIA        MOCLDY    32  26  78 CALM      30.16R
LAWRENCE       CLEAR     19  18  95 CALM      30.19R
MANHATTAN      CLEAR     18  15  88 CALM      30.18R
OLATHE IND     PTCLDY    28  23  81 CALM      30.18R
OLATHE EXE     PTCLDY    28  23  81 CALM      30.17R
SALINA         CLEAR     22  17  81 NW5       30.17R
TOPEKA BILLARD CLEAR     22  18  85 CALM      30.18R
TOPEKA FORBES  CLEAR     23  18  81 CALM      30.17R
$$




USA.gov is the U.S. government's official web portal to all federal, state and local government web resources and services.